Yeovilton, United Kingdom

2:18 PM BST on June 19, 2018 (GMT +0100)
Yeovil Radar Navy

Weather History for EGDY - October, 2017

Change the Weather History Date:

Monday, October 16, 2017

  Actual Average Record
Temperature  
Mean Temperature 61 °F -  
Max Temperature 67 °F 53 °F 67 °F (2017)
Min Temperature 55 °F 41 °F 37 °F (2004)
Degree Days  
Heating Degree Days 4    
Growing Degree Days 11 (Base 50)    
Moisture  
Dew Point 53 °F    
Average Humidity 72    
Maximum Humidity 100    
Minimum Humidity 51    
Precipitation  
Precipitation 0.00 in - - ()
Sea Level Pressure  
Sea Level Pressure 29.95 in    
Wind  
Wind Speed 13 mph ()    
Max Wind Speed 28 mph    
Max Gust Speed 43 mph    
Visibility 7.6 miles    
Events Rain    
Averages and records for this station are not official NWS values.
T = Trace of Precipitation, MM = Missing Value Source: Averaged Metar Reports

Daily Weather History Graph

Daily Weather History Graph

Search for Another Location

Airport or City:

Astronomy

Oct. 16, 2017 Rise Set
Actual Time 7:35 AM BST 6:15 PM BST
Civil Twilight 7:02 AM BST 6:48 PM BST
Nautical Twilight 6:23 AM BST 7:27 PM BST
Astronomical Twilight 5:45 AM BST 8:05 PM BST
Moon 3:24 AM BST (10/16) 5:17 PM BST (10/16)
Length of Visible Light 11h 46m
Length of Day
10h 40m
Waning Crescent, 12% of the Moon is Illuminated
Oct 16
Waning Crescent
Oct 19
New
Oct 27
First Quarter
Nov 4
Full
Nov 10
Last Quarter

Hourly Weather History & Observations

Time (BST) Temp. Dew Point Humidity Pressure Visibility Wind Dir Wind Speed Gust Speed Precip Events Conditions
12:00 AM 60 °F 58 °F 90% 29.99 in 5 mi South 8.1 mph - -   Mist
12:50 AM 59.0 °F 59.0 °F 100% 29.98 in 3.7 mi ENE 4.6 mph - N/A   Scattered Clouds
1:00 AM 59 °F 58 °F 96% 29.99 in 4 mi ENE 4.6 mph - -   Mist
1:50 AM 59.0 °F 57.2 °F 94% 29.98 in 3.1 mi East 5.8 mph - N/A   Mostly Cloudy
2:00 AM 59 °F 57 °F 92% 29.98 in 3 mi East 5.8 mph - -   Mist
2:50 AM 59.0 °F 59.0 °F 100% 29.95 in - ESE 4.6 mph - N/A   Clear
3:50 AM 62.6 °F 59.0 °F 88% 29.92 in - ENE 4.6 mph - N/A   Clear
4:00 AM 62 °F 59 °F 85% 29.94 in 16 mi ENE 4.6 mph - -   Mostly Cloudy
4:50 AM 64.4 °F 59.0 °F 83% 29.92 in - SSE 15.0 mph - N/A   Clear
5:50 AM 64.4 °F 59.0 °F 83% 29.89 in - SSE 16.1 mph - N/A   Clear
6:00 AM 64 °F 59 °F 79% 29.91 in 16 mi SSE 16.1 mph - -   Overcast
6:50 AM 64.4 °F 60.8 °F 88% 29.86 in 6.2 mi SE 21.9 mph - N/A Rain Light Rain
7:00 AM 65 °F 60 °F 78% 29.86 in 16 mi SE 21.9 mph - - Rain Light Rain
7:50 AM 66.2 °F 59.0 °F 78% 29.83 in - SE 16.1 mph - N/A   Clear
8:00 AM 65 °F 60 °F 77% 29.85 in 12 mi SE 16.1 mph - - Rain Light Rain
8:50 AM 68.0 °F 59.0 °F 73% 29.89 in - SSE 20.7 mph - N/A   Clear
9:00 AM 67 °F 58 °F 66% 29.88 in 12 mi SSE 20.7 mph - -   Mostly Cloudy
9:50 AM 66.2 °F 59.0 °F 78% 29.86 in 6.2 mi South 21.9 mph - N/A   Overcast
10:50 AM 66.2 °F 59.0 °F 78% 29.86 in 6.2 mi South 25.3 mph - N/A   Overcast
11:00 AM 66 °F 59 °F 72% 29.88 in 6 mi South 25.3 mph - -   Overcast
11:50 AM 64.4 °F 55.4 °F 73% 29.89 in 6.2 mi South 25.3 mph 39.1 mph N/A   Overcast
12:00 PM 65 °F 54 °F 60% 29.91 in 6 mi South 25.3 mph - -   Overcast
12:50 PM 64.4 °F 53.6 °F 68% 29.89 in 6.2 mi SSW 27.6 mph 42.6 mph N/A   Mostly Cloudy
1:00 PM 64 °F 54 °F 61% 29.91 in 7 mi SSW 27.6 mph - -   Partly Cloudy
1:50 PM 64.4 °F 51.8 °F 64% 29.92 in 6.2 mi SSW 24.2 mph 36.8 mph N/A   Partly Cloudy
2:00 PM 64 °F 52 °F 56% 29.92 in 7 mi SSW 24.2 mph - -   Scattered Clouds
2:50 PM 62.6 °F 51.8 °F 68% 29.92 in 6.2 mi SSW 24.2 mph 36.8 mph N/A   Scattered Clouds
3:00 PM 63 °F 51 °F 57% 29.94 in 7 mi SSW 24.2 mph - -   Partly Cloudy
3:50 PM 62.6 °F 50.0 °F 63% 29.95 in 6.2 mi SSW 20.7 mph 34.5 mph N/A   Scattered Clouds
4:50 PM 60.8 °F 48.2 °F 63% 29.95 in 6.2 mi SSW 21.9 mph - N/A   Scattered Clouds
5:00 PM 61 °F 48 °F 53% 29.96 in 7 mi SSW 21.9 mph - -   Partly Cloudy
5:50 PM 59.0 °F 46.4 °F 63% 29.95 in 6.2 mi SSW 24.2 mph - N/A   Mostly Cloudy
6:00 PM 59 °F 47 °F 53% 29.96 in 8 mi SSW 24.2 mph - -   Mostly Cloudy
6:50 PM 59.0 °F 46.4 °F 63% 29.98 in 6.2 mi SW 19.6 mph 31.1 mph N/A   Partly Cloudy
7:00 PM 59 °F 46 °F 52% 29.99 in 7 mi SW 19.6 mph - -   Scattered Clouds
7:50 PM 59.0 °F 44.6 °F 59% 30.01 in 6.2 mi SW 19.6 mph 32.2 mph N/A   Partly Cloudy
8:00 PM 58 °F 45 °F 51% 30.01 in 12 mi SW 19.6 mph - -   Scattered Clouds
8:50 PM 57.2 °F 46.4 °F 67% 30.04 in 6.2 mi SW 10.4 mph - N/A   Mostly Cloudy
9:00 PM 57 °F 47 °F 60% 30.04 in 12 mi SW 10.4 mph - -   Mostly Cloudy
9:50 PM 57.2 °F 44.6 °F 63% 30.06 in 6.2 mi SW 11.5 mph - N/A   Scattered Clouds
10:50 PM 55.4 °F 46.4 °F 72% 30.06 in 6.2 mi SW 12.7 mph - N/A   Partly Cloudy
11:00 PM 56 °F 46 °F 59% 30.08 in 12 mi SW 12.7 mph - -   Scattered Clouds
11:50 PM 55.4 °F 44.6 °F 67% 30.09 in - SW 9.2 mph - N/A   Clear